User: anonymous   Login
Location: Nirvana
(45.0297°N, 77.2628°W)
Time: 01:02:53
(UTC-04:00)
Language:

H-2A R/B - Orbit

View from above orbital plane
View from above orbital plane
View from above satellite
View from above satellite

Ground track
Ground track

The orbit data is extracted from the following two-line orbital elements,

1 27601U 02056E   16242.28278207  .00000024  00000-0  23865-4 0  9994
2 27601  98.4137 313.5987 0073402  80.8549 321.7299 14.31730555716041
Epoch (UTC): 29 August 2016 06:47:12
Eccentricity: 0.0073402
inclination: 98.4137°
perigee height: 733 km
apogee height: 838 km
right ascension of ascending node: 313.5987°
argument of perigee: 80.8549°
revolutions per day: 14.31730555
mean anomaly at epoch: 321.7299°
orbit number at epoch: 71604

The dashed part of the orbit path shows where the satellite is in the earth's shadow,  

DLR